DW5621 Weather Reports


time (UTC)temp
C
wind
direction
speed
KPH
gust
KPH
rain 1hr
cm
rain 24hr
cm
rain mn
cm
humidity
%
barometer
mb
20260506094537 11 355 6.4 19.3 0.00 0.00 0.00 62 1013.1
20260506093657 11 340 6.4 20.9 0.00 0.00 0.00 63 1013.0
20260506092757 11 343 6.4 25.7 0.00 0.00 0.00 64 1013.0
20260506091857 10 333 8.0 27.4 0.00 0.00 0.00 64 1013.0
20260506090936 11 326 8.0 25.7 0.00 0.00 0.00 62 1012.9
20260506090037 12 348 8.0 25.7 0.00 0.00 0.00 61 1012.9
20260506085436 12 352 8.0 27.4 0.00 0.00 0.00 61 1012.8
20260506084536 11 342 8.0 27.4 0.00 0.00 0.00 62 1012.8
20260506083636 11 339 9.7 27.4 0.00 0.00 0.00 63 1012.8
20260506082736 11 355 6.4 22.5 0.00 0.00 0.00 65 1012.6
20260506081836 11 357 8.0 22.5 0.00 0.00 0.00 67 1012.7
20260506080936 10 4 8.0 22.5 0.00 0.00 0.00 68 1012.9
20260506072736 9 348 6.4 19.3 0.00 0.00 0.00 74 1012.7
20260506071836 9 332 6.4 19.3 0.00 0.00 0.00 75 1012.8
20260506070957 8 347 4.8 17.7 0.00 0.00 0.00 76 1012.7
20260506061836 8 351 8.0 20.9 0.00 0.00 0.00 78 1012.6
20260506060936 8 359 4.8 17.7 0.00 0.00 0.00 78 1012.5
20260506050936 8 352 6.4 16.1 0.00 0.00 0.00 76 1012.2
20260506044536 8 4 3.2 16.1 0.00 0.00 0.00 76 1012.1
20260506043636 8 354 4.8 16.1 0.00 0.00 0.00 76 1012.1
20260506042736 8 352 4.8 17.7 0.00 0.00 0.00 77 1012.1
20260506041857 8 351 4.8 17.7 0.00 0.00 0.00 77 1012.1
20260506040936 8 342 3.2 12.9 0.00 0.00 0.00 76 1012.1
20260506040036 8 354 4.8 16.1 0.00 0.00 0.00 76 1012.1
20260506035436 8 349 3.2 16.1 0.00 0.00 0.00 76 1012.0
20260506034536 9 339 4.8 16.1 0.00 0.00 0.00 75 1012.0
20260506033636 9 5 3.2 11.3 0.00 0.00 0.00 75 1012.1
20260506032736 9 353 1.6 16.1 0.00 0.00 0.00 75 1012.1
20260506031836 9 6 3.2 9.7 0.00 0.00 0.00 74 1012.1
20260506030957 9 10 4.8 22.5 0.00 0.00 0.00 74 1012.1
20260506030036 9 13 4.8 22.5 0.00 0.00 0.00 74 1012.2
20260506025437 9 20 3.2 16.1 0.00 0.00 0.00 74 1012.2
20260506024536 9 18 3.2 12.9 0.00 0.00 0.00 74 1012.2
20260506023636 9 21 3.2 16.1 0.00 0.00 0.00 74 1012.3
20260506022736 10 7 3.2 11.3 0.00 0.00 0.00 75 1012.4
20260506021836 10 354 3.2 16.1 0.00 0.00 0.00 75 1012.5
20260506020936 10 4 3.2 12.9 0.00 0.00 0.00 75 1012.5
20260506020039 10 358 4.8 19.3 0.00 0.00 0.00 75 1012.5
20260506015436 10 358 4.8 19.3 0.00 0.00 0.00 76 1012.6
20260506014536 10 360 4.8 16.1 0.00 0.00 0.00 77 1012.6
20260506013636 10 7 3.2 11.3 0.00 0.00 0.00 77 1012.6
20260506012736 10 4 3.2 11.3 0.00 0.00 0.00 77 1012.6
20260506011836 10 6 1.6 11.3 0.00 0.00 0.00 76 1012.7
20260506010936 10 31 1.6 8.0 0.00 0.00 0.00 76 1012.7
20260506010036 10 43 1.6 6.4 0.00 0.00 0.00 75 1012.6
20260506005436 10 33 1.6 11.3 0.00 0.00 0.00 75 1012.5
20260506004557 10 39 3.2 12.9 0.00 0.00 0.00 75 1012.5
20260506003657 10 40 3.2 9.7 0.00 0.00 0.00 74 1012.7
20260506002736 10 23 1.6 9.7 0.00 0.00 0.00 74 1012.7
20260506001836 10 36 3.2 11.3 0.00 0.00 0.00 74 1012.8
20260506000936 10 38 3.2 16.1 0.00 0.00 0.00 73 1012.9
20260506000057 10 43 3.2 11.3 0.00 0.00 0.00 73 1012.9
20260505235436 10 39 3.2 11.3 0.00 0.00 0.00 73 1012.8
20260505234536 10 32 3.2 12.9 0.00 0.00 0.00 73 1012.8
20260505233636 10 30 3.2 16.1 0.00 0.00 0.00 73 1012.7
20260505232736 11 51 3.2 8.0 0.00 0.00 0.00 73 1012.9
20260505231836 11 22 3.2 22.5 0.00 0.00 0.00 72 1012.9
20260505230936 11 37 4.8 22.5 0.00 0.00 0.00 72 1012.9
20260505230037 11 21 6.4 20.9 0.00 0.00 0.00 72 1013.0
20260505225436 11 18 6.4 20.9 0.00 0.00 0.00 72 1012.9
20260505224536 11 18 4.8 22.5 0.00 0.00 0.00 72 1012.8
20260505223635 11 9 4.8 22.5 0.00 0.00 0.00 73 1012.9
20260505222736 11 19 6.4 27.4 0.00 0.00 0.00 74 1012.9
20260505221836 11 29 4.8 17.7 0.00 0.00 0.00 77 1012.9
20260505220936 11 41 3.2 11.3 0.00 0.00 0.00 77 1012.8
20260505220035 11 41 3.2 17.7 0.00 0.00 0.00 77 1012.7
20260505215435 11 75 1.6 9.7 0.00 0.00 0.00 78 1012.7
20260505214536 11 80 1.6 9.7 0.00 0.00 0.00 78 1012.6
20260505213636 12 112 1.6 19.3 0.00 0.00 0.00 77 1012.5
20260505212736 12 45 3.2 19.3 0.00 0.00 0.00 76 1012.6
20260505211836 12 39 3.2 16.1 0.00 0.00 0.00 75 1012.6
20260505210936 12 46 3.2 17.7 0.00 0.00 0.00 73 1012.7
20260505210036 12 44 3.2 17.7 0.00 0.00 0.00 71 1012.5
20260505205436 12 59 3.2 11.3 0.00 0.00 0.00 69 1012.7
20260505204536 12 85 1.6 8.0 0.00 0.00 0.00 66 1012.5
20260505203636 12 100 1.6 8.0 0.00 0.00 0.00 66 1012.4
20260505202736 12 90 1.6 8.0 0.00 0.00 0.00 65 1012.3
20260505201836 12 104 1.6 8.0 0.00 0.00 0.00 67 1012.3
20260505200957 13 128 1.6 9.7 0.00 0.00 0.00 68 1012.2
20260505200036 13 127 1.6 8.0 0.00 0.00 0.00 69 1012.1
20260505195436 13 146 3.2 9.7 0.00 0.00 0.00 69 1012.0
20260505194536 13 154 3.2 9.7 0.00 0.00 0.00 70 1011.8
20260505193635 13 150 1.6 11.3 0.00 0.00 0.00 70 1011.7
20260505192736 13 139 1.6 8.0 0.00 0.00 0.00 69 1011.5
20260505191835 13 129 1.6 8.0 0.00 0.00 0.00 68 1011.5
20260505190936 13 147 1.6 11.3 0.00 0.00 0.00 66 1011.5
20260505190036 13 136 3.2 11.3 0.00 0.00 0.00 64 1011.4
20260505185436 13 136 3.2 11.3 0.00 0.00 0.00 64 1011.3
20260505184536 13 148 1.6 16.1 0.00 0.00 0.00 63 1011.2
20260505183636 13 151 3.2 16.1 0.00 0.00 0.00 62 1011.1
20260505182757 13 138 1.6 9.7 0.00 0.00 0.00 62 1010.9
20260505181836 14 139 1.6 8.0 0.00 0.00 0.00 61 1010.9
20260505180957 14 126 1.6 8.0 0.00 0.00 0.00 61 1010.9
20260505180057 14 111 1.6 9.7 0.00 0.00 0.00 61 1011.0
20260505175435 14 119 3.2 12.9 0.00 0.00 0.00 61 1011.0
20260505174535 14 150 3.2 16.1 0.00 0.00 0.00 61 1010.9
20260505173657 14 145 3.2 16.1 0.00 0.00 0.00 60 1011.0
20260505172757 15 140 3.2 16.1 0.00 0.00 0.00 60 1011.0
20260505171857 15 145 3.2 16.1 0.00 0.00 0.00 59 1011.0
20260505170935 15 156 4.8 16.1 0.00 0.00 0.00 59 1011.1
20260505170035 15 162 3.2 12.9 0.00 0.00 0.00 58 1011.2
20260505165456 15 154 3.2 12.9 0.00 0.00 0.00 58 1011.3
20260505164535 15 145 3.2 12.9 0.00 0.00 0.00 58 1011.2
20260505163635 15 153 4.8 16.1 0.00 0.00 0.00 58 1011.1
20260505162735 15 154 4.8 17.7 0.00 0.00 0.00 56 1011.3
20260505161835 15 161 6.4 17.7 0.00 0.00 0.00 55 1011.2
20260505160935 15 160 6.4 17.7 0.00 0.00 0.00 53 1011.1
20260505152735 16 155 4.8 12.9 0.00 0.00 0.00 51 1011.2
20260505151835 16 107 3.2 12.9 0.00 0.00 0.00 51 1011.1
20260505150935 16 44 1.6 9.7 0.00 0.00 0.00 50 1011.1
20260505124535 16 15 3.2 17.7 0.00 0.00 0.00 52 1011.7
20260505123635 16 39 3.2 17.7 0.00 0.00 0.00 50 1011.7
20260505122735 16 33 3.2 17.7 0.00 0.00 0.00 50 1011.8
20260505121835 16 14 4.8 19.3 0.00 0.00 0.00 51 1011.8
20260505120935 16 15 3.2 19.3 0.00 0.00 0.00 49 1011.8
20260505120035 16 44 3.2 19.3 0.00 0.00 0.00 52 1011.8
20260505115435 16 53 3.2 17.7 0.00 0.00 0.00 52 1011.9
20260505114535 16 49 4.8 19.3 0.00 0.00 0.00 50 1011.9
20260505113635 16 36 4.8 19.3 0.00 0.00 0.00 50 1012.0
20260505112735 16 24 4.8 19.3 0.00 0.00 0.00 53 1011.9
20260505111835 16 7 3.2 19.3 0.00 0.00 0.00 55 1012.1
20260505110935 15 24 4.8 19.3 0.00 0.00 0.00 56 1012.0
20260505101835 16 37 3.2 16.1 0.00 0.00 0.00 58 1012.5
20260505100935 16 20 3.2 16.1 0.00 0.00 0.00 58 1012.5
20260505100035 16 42 4.8 12.9 0.00 0.00 0.00 60 1012.6
20260505095435 15 48 3.2 12.9 0.00 0.00 0.00 59 1012.8